Regional Weather Roundup
Issued by NWS Wakefield, VA

Home | Current Version | Previous Version | Graphics & Text | Print | Product List | Glossary On
Versions: 1 2 3 4 5 6 7 8 9 10 11 12 13 14 15 16 17 18 19 20 21 22 23 24 25 26 27
000
ASUS41 KAKQ 200615
RWRAKQ

REGIONAL WEATHER ROUNDUP
NATIONAL WEATHER SERVICE WAKEFIELD VA
200 AM EDT FRI APR 20 2018

Note: "fair" indicates few or no clouds below 12,000 feet with no
significant weather and/or obstructions to visibility. * = Denotes
station may not report precipitation (e.g., rain,snow,etc.),
thunder or fog.

VAZ042-051-052>054-056-200700-
NORTHERN VIRGINIA

CITY           SKY/WX    TMP DP  RH WIND       PRES   REMARKS
WASH NATIONAL  FAIR      43  22  43 NW10      30.19R
DULLES         FAIR      36  25  64 NW3       30.19R
FORT BELVOIR   FAIR      34  26  73 CALM      30.19R
QUANTICO       FAIR      41  32  70 NW5       30.20R
FREDERICKSBRG* FAIR      38  31  76 CALM      30.19S
STAFFORD*      FAIR      32  29  89 CALM      30.23S
WARRENTON      FAIR      35  25  65 CALM      30.18S
CULPEPER*      FAIR      33  26  76 CALM      30.20S
MANASSAS*      FAIR      35  27  72 NW3       30.19S
LEESBURG*      FAIR      39  28  65 N6        30.20R
WINCHESTER     FAIR      37  21  52 NW13G18   30.20S
FRONT ROYAL*   FAIR      41  25  52 NW8G16    30.18S
LURAY*         FAIR      43  27  52 NW8       30.18S
$$

VAZ048-049-060>072-079>083-200700-
CENTRAL AND SOUTH CENTRAL VIRGINIA

CITY           SKY/WX    TMP DP  RH WIND       PRES   REMARKS
RICHMOND       FAIR      42  27  55 NW6       30.19S
CHESTERFIELD*  FAIR      37  27  67 CALM      30.20
PETERSBURG*    FAIR      32  28  85 CALM      30.21S
HANOVER        FAIR      37  29  72 CALM      30.21S
TAPPAHANNOCK*  FAIR      34  31  87 W3        30.20R
QUINTON*       FAIR      37  30  78 CALM      30.19S
CHARLOTTSVILLE FAIR      39  25  57 S3        30.18S
GORDONSVILLE*  FAIR      34  29  82 CALM      30.19R
ORANGE*        FAIR      34  28  80 CALM      30.19R
LOUISA*        FAIR      30  26  83 CALM      30.23S
BUMPASS*       FAIR      34  28  80 CALM      30.20R
FARMVILLE*     FAIR      38  28  65 CALM      30.20F
CREWE*         FAIR      34  32  90 CALM      30.21S
FORT PICKETT*  FAIR      37  28  71 CALM      30.21S
CHASE CITY*    FAIR      38  29  71 CALM      30.23S
CLARKSVILLE*   FAIR      41  30  65 CALM      30.23F
SOUTH HILL*    FAIR      35  30  83 SW3       30.28S
LAWRENCEVILLE* FAIR      37  28  71 CALM      30.21F
EMPORIA*       FAIR      37  30  75 CALM      30.23S
$$

VAZ088>098-200700-
SOUTHEAST VIRGINIA

CITY           SKY/WX    TMP DP  RH WIND       PRES   REMARKS
NORFOLK        FAIR      47  27  45 N10G18    30.19R
VIRGINIA BEACH FAIR      46  26  45 N17G33    30.18R
NORFOLK NAVAL  FAIR      45  26  47 NW10      30.21R
WEST POINT*    FAIR      35  29  78 CALM      30.21S
SALUDA*        FAIR      45  32  59 NW9       30.18S
NEWPORT NEWS   NOT AVBL
LANGLEY AFB    FAIR      44  26  49 NW9       30.19S
FORT EUSTIS    FAIR      45  28  50 NW7       30.17S
WILLIAMSBURG*  FAIR      41  27  56 CALM      30.20F
HR EXEC AP*    FAIR      39  28  64 CALM      30.21R
FRANKLIN*      FAIR      39  28  64 CALM      30.22S
US460-WAKEFLD  FAIR      37  29  72 CALM      30.21R
$$

VAZ020-022-025-037-045-200700-
WEST CENTRAL AND SOUTHWEST VIRGINIA

CITY           SKY/WX    TMP DP  RH WIND       PRES   REMARKS
STAUNTON*      MOCLDY    31  26  80 CALM      30.20S
WAYNESBORO*    FAIR      40  26  57 W5        30.17S
HOT SPRINGS VA FAIR      33  22  65 NW17G26   30.12S WCI  22
LYNCHBURG      FAIR      36  26  67 VRB3      30.22S
DANVILLE       FAIR      36  29  75 CALM      30.25S
SOUTH BOSTON*  FAIR      36  29  75 CALM      30.24F
MARTINSVILLE   FAIR      33  28  79 CALM      30.28S
ROANOKE        FAIR      42  27  55 W5        30.25R
BLACKSBURG     FAIR      37  28  69 W7        30.25S
DUBLIN*        FAIR      40  28  63 W6        30.25S
MARION*        FAIR      37  28  70 W10G17    30.28S
HILLSVILLE*    FAIR      36  26  66 NW17G24   30.20R
RICHLANDS*     FAIR      34   8  33 W5        30.28S
WISE*          FAIR      32  28  86 W3        30.29F
ABINGDON*      FAIR      36  29  77 CALM      30.30S
$$

MDZ021>025-VAZ099-100-200700-
SOUTHERN MARYLAND AND THE DELMARVA PENINSULA

CITY           SKY/WX    TMP DP  RH WIND       PRES   REMARKS
PATUXENT RIVER FAIR      42  27  55 W8        30.17R
BAY BRIDGE APT FAIR      41  25  52 NW12      30.16R
LEONARDTOWN    FAIR      37  28  70 W6        30.19S
DOVER          FAIR      39  24  54 W7        30.12S
GEORGETOWN     FAIR      40  25  55 CALM      30.13F
EASTON         FAIR      42  23  46 NW10G16   30.19R
CAMBRIDGE        N/A    N/A N/A N/A MISG        N/A
SALISBURY      FAIR      39  27  62 W5        30.14S
TANGIER        NOT AVBL
OCEAN CITY     FAIR      38  27  64 NW3       30.14S
WALLOPS ISLAND FAIR      41  28  60 W5        30.16R
ACCOMACK*      FAIR      45  26  47 NW14G28   30.16S
$$

NCZ012>017-030>032-200700-
NORTH CENTRAL AND EASTERN NORTH CAROLINA

CITY           SKY/WX    TMP DP  RH WIND       PRES   REMARKS
ROANOKE RAPIDS FAIR      39  32  75 CALM      30.23R
RALEIGH        FAIR      44  30  57 N6        30.25R
ELIZABETH CITY FAIR      46  30  53 N13       30.20R
AHOSKIE*       FAIR      44  27  52 CALM      30.23R
EDENTON*       FAIR      47  30  50 N9G16     30.22R
CURRITUCK*     NOT AVBL
KILL DEVIL HLS FAIR      46  31  55 N9        30.18R
MANTEO         FAIR      47  32  55 N18G29    30.19S
CAPE HATTERAS  FAIR      50  39  66 N13G30    30.16R
TARBORO*       NOT AVBL
GOLDSBORO      FAIR      47  30  51 N8        30.21R
WASHINGTON     FAIR      46  32  58 CALM      30.21R
GREENVILLE     FAIR      45  32  61 N7        30.23R
NEW BERN       FAIR      48  33  56 N10       30.20R
WILMINGTON     FAIR      50  31  48 N10       30.19R
$$

VAZ048-200700-
ELSEWHERE

CITY           SKY/WX    TMP DP  RH WIND       PRES   REMARKS
HARRISBURG PA  FAIR      38  23  55 NW14      30.13R
BALTIMORE      FAIR      39  21  48 NW10      30.17R
ANNAPOLIS      FAIR      44  25  47 NW8       30.16R
ANDREWS AFB    FAIR      41  22  46 NW8       30.16R
PHILADELPHIA   FAIR      40  22  48 NW17      30.11R
HENDERSON NC   FAIR      38  28  66 CALM      30.23F
GREENSBORO     FAIR      42  27  55 VRB6      30.24R
ROCKY MOUNT    FAIR      46  30  53 N13       30.23R
$$

VAZ100-200700-
MARINE

STATION/POSITION TIME  TEMP    WIND        PRES    WAVE   SWELL
                       AIR SEA DIR/SP/G            HT/PER HT/PER
                 (UTC) (F)     (DEG/KT/KT) (MB)    (FT/S) (FT/S)
BRANDYWINE LGT   0536          310/ 22/ 26 1020.0R
CAPE MAY NJ      0542      48  300/  9/ 18 1019.0R
LEWES DE         0542      48  300/ 14/ 18 1020.0R
15NM E FENWICK I 0550   43 46  300/ 19/ 23 1019.6R   5/ 6
OCEAN-CITY-INLET 0542      48  320/  4/  6 1021.0R
WACHAPREAGUE VA  0548      54  320/  4/ 16 1021.3R
THOMAS POINT MD  0600   42 49  310/ 11/ 13 1022.7R
GOOSES REEF MD   0600   45     360/ 16/ 19 1022.0
COVE POINT MD    0536          330/ 15/ 19 1021.9S
SOLOMONS ISLAND  0548      52  290/  7/ 11 1021.4R
BISHOPS HEAD MD  0542      49  320/ 13/ 20 1021.5F
PINEY POINT MD   0536          350/ 19/ 20   N/A
POTOMAC MD       0600   47 52  320/ 17/ 23 1022.7    2/ 3
CAMBRIDGE MD     0548      53              1021.7S
LEWISETTA VA     0548      53  340/ 13/ 17 1021.8R
RAPPAHANNOCK LGT 0536          320/ 23/ 28 1022.0R
YORK RVR RNG VA  0536          320/ 11/ 14 1022.7R
YORKTOWN VA      0542      56  320/ 12/ 16 1022.0F
DOMINION TERM VA 0536          360/ 12/ 15 1022.7R
KIPTOPEKE VA     0542      53  360/ 20/ 24   N/A
CAPE HENRY VA    0536          340/ 25/ 31   N/A
WILLOUBY STN VA  0536          330/ 13/ 16 1022.3S
S CRANEY ISL VA  0536          340/  9/ 13 1022.3R
CAPE HENRY BUOY  0600      50                N/A     6/ 5
64NM E OF VA BCH 0550   47 49  340/ 23/ 27 1021.0R   7/ 7   3/13
DUCK PIER NC     0548      50  350/ 27/ 30 1020.9R
44100 DUCK FRF   0545      50                N/A     9/ 7   2/11
44056 DUCK FRF   0600      49                N/A     7/ 7   2/14
OREGON INLET NC  0542      60  340/ 17/ 24 1021.7R
HATTERAS NC      0542      63   10/ 26/ 32 1021.0R
DIAMOND SHLS NC  0600   53 67  360/ 27/ 35 1021.1
CAPE LOOKOUT NC  0600          350/ 16/ 19 1021.3R
$$




USA.gov is the U.S. government's official web portal to all federal, state and local government web resources and services.